When you browse on this site, cookies collect data to enhance your experience and personalize the content and advertising you see.
Visit our Privacy Policy to learn more. By continuing to use the site, you agree to this use of cookies and data.
  • Em Portugal
  • Lista de países
  • Para 7 dias
  • Temperatura da água
  • Mapas de satélite
  • Mapa do tempo
  • Widgets de tempo
  • user-avatar
    Iniciar Sessão

    Previsão horária em Kitzbuel

    Hoje, 13 Dezembro, Quinta-feira

    Tempo Temperatura Precipitação Vento Pressão Humidade
    00:00 -7°C° 0 mm 1 m/s 675 mmHg 87%
    01:00 -7°C° 0 mm 1 m/s 675 mmHg 87%
    02:00 -8°C° 0 mm 1 m/s 675 mmHg 87%
    03:00 -8°C° 0 mm 1 m/s 674 mmHg 87%
    04:00 -8°C° 0 mm 1 m/s 674 mmHg 87%
    05:00 -9°C° 0 mm 2 m/s 674 mmHg 87%
    06:00 -10°C° 0 mm 2 m/s 674 mmHg 86%
    07:00 -10°C° 0 mm 2 m/s 674 mmHg 86%
    08:00 -9°C° 0 mm 2 m/s 674 mmHg 84%
    09:00 -8°C° 0 mm 2 m/s 674 mmHg 81%
    10:00 -7°C° 0 mm 2 m/s 674 mmHg 78%
    11:00 -5°C° 0 mm 2 m/s 674 mmHg 76%
    12:00 -4°C° 0 mm 2 m/s 673 mmHg 73%
    13:00 -3°C° 0 mm 2 m/s 673 mmHg 71%
    14:00 -4°C° 0 mm 2 m/s 673 mmHg 76%
    15:00 -5°C° 0 mm 2 m/s 673 mmHg 81%
    16:00 -4°C° 0 mm 1 m/s 672 mmHg 86%
    17:00 -7°C° 0 mm 2 m/s 672 mmHg 87%
    18:00 -8°C° 0 mm 2 m/s 672 mmHg 87%
    19:00 -8°C° 0 mm 2 m/s 672 mmHg 87%
    20:00 -9°C° 0 mm 2 m/s 673 mmHg 86%
    21:00 -9°C° 0 mm 2 m/s 673 mmHg 85%
    22:00 -9°C° 0 mm 2 m/s 673 mmHg 84%
    23:00 -8°C° 0 mm 1 m/s 673 mmHg 84%

    Amanhã, 14 Dezembro, Sexta-feira

    Tempo Temperatura Precipitação Vento Pressão Humidade
    00:00 -8°C° 0 mm 1 m/s 673 mmHg 84%
    01:00 -8°C° 0 mm 1 m/s 673 mmHg 84%
    02:00 -8°C° 0 mm 1 m/s 673 mmHg 83%
    03:00 -8°C° 0 mm 1 m/s 673 mmHg 83%
    04:00 -8°C° 0 mm 1 m/s 673 mmHg 83%
    05:00 -8°C° 0 mm 1 m/s 673 mmHg 82%
    06:00 -8°C° 0 mm 1 m/s 673 mmHg 82%
    07:00 -8°C° 0 mm 1 m/s 673 mmHg 81%
    08:00 -7°C° 0 mm 1 m/s 674 mmHg 79%
    09:00 -6°C° 0 mm 1 m/s 674 mmHg 77%
    10:00 -3°C° 0 mm 1 m/s 675 mmHg 75%
    11:00 -2°C° 0 mm 1 m/s 675 mmHg 73%
    12:00 -1°C° 0 mm 1 m/s 675 mmHg 71%
    13:00 0°C° 0 mm 1 m/s 675 mmHg 68%
    14:00 -1°C° 0 mm 1 m/s 674 mmHg 75%
    15:00 -2°C° 0 mm 1 m/s 674 mmHg 81%
    16:00 -4°C° 0 mm 1 m/s 674 mmHg 87%
    17:00 -6°C° 0 mm 1 m/s 674 mmHg 87%
    18:00 -6°C° 0 mm 1 m/s 675 mmHg 87%
    19:00 -7°C° 0 mm 1 m/s 675 mmHg 87%
    20:00 -7°C° 0 mm 1 m/s 675 mmHg 84%
    21:00 -7°C° 0 mm 1 m/s 676 mmHg 82%
    22:00 -7°C° 0 mm 1 m/s 676 mmHg 80%
    23:00 -7°C° 0 mm 1 m/s 676 mmHg 78%

    Depois de amanhã, 15 Dezembro, Sábado

    Tempo Temperatura Precipitação Vento Pressão Humidade
    00:00 -7°C° 0 mm 1 m/s 676 mmHg 76%
    01:00 -8°C° 0 mm 1 m/s 676 mmHg 74%
    02:00 -8°C° 0 mm 1 m/s 676 mmHg 73%
    03:00 -8°C° 0 mm 1 m/s 676 mmHg 73%
    04:00 -8°C° 0 mm 1 m/s 676 mmHg 72%
    05:00 -8°C° 0 mm 1 m/s 677 mmHg 73%
    06:00 -8°C° 0 mm 1 m/s 677 mmHg 73%
    07:00 -8°C° 0 mm 1 m/s 677 mmHg 73%
    08:00 -7°C° 0 mm 1 m/s 678 mmHg 72%
    09:00 -6°C° 0 mm 1 m/s 678 mmHg 71%
    10:00 -4°C° 0 mm 1 m/s 678 mmHg 70%
    11:00 -3°C° 0 mm 1 m/s 678 mmHg 68%
    12:00 -2°C° 0 mm 1 m/s 678 mmHg 66%
    13:00 0°C° 0 mm 1 m/s 678 mmHg 65%
    14:00 -2°C° 0 mm 1 m/s 677 mmHg 70%
    15:00 -3°C° 0 mm 1 m/s 677 mmHg 76%
    16:00 -4°C° 0 mm 1 m/s 677 mmHg 81%
    17:00 -6°C° 0 mm 1 m/s 677 mmHg 80%
    18:00 -6°C° 0 mm 1 m/s 677 mmHg 78%
    19:00 -7°C° 0 mm 1 m/s 677 mmHg 76%
    20:00 -7°C° 0 mm 1 m/s 677 mmHg 73%
    21:00 -7°C° 0 mm 1 m/s 677 mmHg 70%
    22:00 -7°C° 0 mm 1 m/s 677 mmHg 66%
    23:00 -7°C° 0 mm 1 m/s 676 mmHg 64%

    16 Dezembro, Domingo

    Tempo Temperatura Precipitação Vento Pressão Humidade
    00:00 -7°C° 0 mm 1 m/s 676 mmHg 61%
    01:00 -7°C° 0 mm 1 m/s 675 mmHg 59%
    02:00 -6°C° 0 mm 1 m/s 675 mmHg 58%
    03:00 -6°C° 0 mm 1 m/s 675 mmHg 57%
    04:00 -4°C° 0 mm 1 m/s 675 mmHg 56%
    05:00 -3°C° 0 mm 1 m/s 674 mmHg 59%
    06:00 -2°C° 0 mm 1 m/s 674 mmHg 61%
    07:00 -2°C° 0 mm 1 m/s 674 mmHg 64%
    08:00 -1°C° 0.4 mm 1 m/s 674 mmHg 70%
    09:00 0°C° 0.4 mm 1 m/s 674 mmHg 76%
    10:00 0°C° 0.4 mm 1 m/s 674 mmHg 82%
    11:00 +1°C° 0.8 mm 1 m/s 673 mmHg 85%
    12:00 +2°C° 0.8 mm 1 m/s 673 mmHg 87%
    13:00 +2°C° 0.8 mm 1 m/s 673 mmHg 90%
    14:00 +3°C° 0.6 mm 1 m/s 673 mmHg 91%
    15:00 +3°C° 0.6 mm 1 m/s 673 mmHg 92%
    16:00 +3°C° 0.6 mm 1 m/s 673 mmHg 93%
    17:00 +2°C° 0.3 mm 2 m/s 673 mmHg 94%
    18:00 +2°C° 0.3 mm 2 m/s 674 mmHg 94%
    19:00 +2°C° 0.3 mm 2 m/s 674 mmHg 95%
    20:00 +2°C° 0.4 mm 2 m/s 674 mmHg 95%
    21:00 +2°C° 0.4 mm 2 m/s 674 mmHg 95%
    22:00 +1°C° 0.4 mm 2 m/s 674 mmHg 95%
    23:00 +1°C° 0.3 mm 2 m/s 675 mmHg 95%

    17 Dezembro, Segunda-feira

    Tempo Temperatura Precipitação Vento Pressão Humidade
    00:00 +1°C° 0.3 mm 2 m/s 675 mmHg 95%
    01:00 +1°C° 0.3 mm 2 m/s 675 mmHg 95%
    02:00 -1°C° 0 mm 2 m/s 675 mmHg 95%
    03:00 0°C° 0 mm 1 m/s 675 mmHg 94%
    04:00 -1°C° 0 mm 1 m/s 675 mmHg 94%
    05:00 -3°C° 0 mm 2 m/s 675 mmHg 93%
    06:00 -4°C° 0 mm 2 m/s 675 mmHg 91%
    07:00 -4°C° 0 mm 2 m/s 675 mmHg 90%
    08:00 -4°C° 0 mm 2 m/s 676 mmHg 87%
    09:00 -3°C° 0 mm 2 m/s 676 mmHg 84%
    10:00 -2°C° 0 mm 2 m/s 677 mmHg 80%
    11:00 -1°C° 0.2 mm 2 m/s 677 mmHg 82%
    12:00 +1°C° 0.2 mm 2 m/s 677 mmHg 83%
    13:00 +1°C° 0.2 mm 2 m/s 677 mmHg 84%
    14:00 +1°C° 0 mm 2 m/s 677 mmHg 86%
    15:00 -1°C° 0 mm 2 m/s 677 mmHg 88%
    16:00 -2°C° 0 mm 2 m/s 677 mmHg 90%
    17:00 -2°C° 0 mm 2 m/s 677 mmHg 89%
    18:00 -3°C° 0 mm 2 m/s 678 mmHg 88%
    19:00 -3°C° 0 mm 2 m/s 678 mmHg 87%
    20:00 -3°C° 0.1 mm 2 m/s 678 mmHg 85%
    21:00 -3°C° 0.1 mm 2 m/s 679 mmHg 84%
    22:00 -3°C° 0.1 mm 2 m/s 679 mmHg 83%
    23:00 -3°C° 0.4 mm 2 m/s 679 mmHg 85%

    18 Dezembro, Terça-feira

    Tempo Temperatura Precipitação Vento Pressão Humidade
    00:00 -3°C° 0.4 mm 2 m/s 679 mmHg 87%
    01:00 -3°C° 0.4 mm 2 m/s 680 mmHg 89%
    02:00 -3°C° 0.6 mm 2 m/s 680 mmHg 90%
    03:00 -3°C° 0.6 mm 2 m/s 680 mmHg 91%
    04:00 -3°C° 0.6 mm 2 m/s 680 mmHg 93%
    05:00 -3°C° 0.3 mm 2 m/s 680 mmHg 92%
    06:00 -3°C° 0.3 mm 2 m/s 680 mmHg 92%
    07:00 -4°C° 0.3 mm 2 m/s 681 mmHg 92%
    08:00 -3°C° 0 mm 2 m/s 681 mmHg 90%
    09:00 -1°C° 0 mm 1 m/s 681 mmHg 89%
    10:00 -1°C° 0 mm 1 m/s 681 mmHg 87%
    11:00 0°C° 0 mm 1 m/s 680 mmHg 85%
    12:00 +1°C° 0 mm 1 m/s 680 mmHg 82%
    13:00 +1°C° 0 mm 0 m/s 680 mmHg 79%
    14:00 +1°C° 0 mm 1 m/s 679 mmHg 81%
    15:00 0°C° 0 mm 1 m/s 678 mmHg 83%
    16:00 -1°C° 0 mm 1 m/s 678 mmHg 85%
    17:00 -4°C° 0 mm 2 m/s 678 mmHg 83%
    18:00 -4°C° 0 mm 2 m/s 678 mmHg 80%
    19:00 -5°C° 0 mm 2 m/s 677 mmHg 78%
    20:00 -5°C° 0 mm 2 m/s 677 mmHg 75%
    21:00 -5°C° 0 mm 2 m/s 677 mmHg 73%
    22:00 -5°C° 0 mm 2 m/s 677 mmHg 70%
    23:00 -5°C° 0 mm 2 m/s 676 mmHg 69%
    Mostrar mais